When you browse on this site, cookies collect data to enhance your experience and personalize the content and advertising you see.
Visit our Privacy Policy to learn more. By continuing to use the site, you agree to this use of cookies and data.
EN

Hourly Weather Ostrovschina

Today, 9 August, Sunday

Time Temperature Precipitation Wind Pressure Humidity
00:00 +16°C° 0 mm 1 mps 755 mmHg 92%
01:00 +15°C° 0 mm 0 mps 755 mmHg 93%
02:00 +14°C° 0 mm 0 mps 755 mmHg 93%
03:00 +14°C° 0 mm 0 mps 754 mmHg 93%
04:00 +14°C° 0 mm 0 mps 754 mmHg 93%
05:00 +14°C° 0 mm 0 mps 754 mmHg 93%
06:00 +18°C° 0 mm 1 mps 754 mmHg 86%
07:00 +20°C° 0 mm 1 mps 754 mmHg 80%
08:00 +22°C° 0 mm 1 mps 754 mmHg 73%
09:00 +23°C° 0.1 mm 1 mps 754 mmHg 69%
10:00 +25°C° 0.1 mm 2 mps 754 mmHg 65%
11:00 +26°C° 0.1 mm 2 mps 754 mmHg 62%
12:00 +26°C° 0.8 mm 2 mps 753 mmHg 66%
13:00 +26°C° 0.8 mm 2 mps 753 mmHg 70%
14:00 +26°C° 0.8 mm 2 mps 753 mmHg 73%
15:00 +25°C° 0.8 mm 2 mps 752 mmHg 76%
16:00 +25°C° 0.8 mm 2 mps 752 mmHg 78%
17:00 +25°C° 0.8 mm 2 mps 752 mmHg 81%
18:00 +23°C° 0.2 mm 1 mps 752 mmHg 83%
19:00 +22°C° 0.2 mm 1 mps 752 mmHg 86%
20:00 +20°C° 0.2 mm 1 mps 752 mmHg 89%
21:00 +20°C° 0.1 mm 1 mps 752 mmHg 90%
22:00 +19°C° 0.1 mm 1 mps 752 mmHg 91%
23:00 +19°C° 0.1 mm 1 mps 752 mmHg 92%

Tomorrow, 10 August, Monday

Time Temperature Precipitation Wind Pressure Humidity
00:00 +19°C° 0 mm 1 mps 752 mmHg 92%
01:00 +18°C° 0 mm 1 mps 752 mmHg 93%
02:00 +18°C° 0 mm 1 mps 752 mmHg 94%
03:00 +16°C° 0 mm 1 mps 752 mmHg 94%
04:00 +16°C° 0 mm 1 mps 752 mmHg 94%
05:00 +16°C° 0 mm 1 mps 752 mmHg 94%
06:00 +19°C° 0 mm 1 mps 752 mmHg 88%
07:00 +20°C° 0 mm 1 mps 752 mmHg 81%
08:00 +22°C° 0 mm 1 mps 752 mmHg 75%
09:00 +24°C° 0 mm 1 mps 752 mmHg 68%
10:00 +25°C° 0 mm 1 mps 752 mmHg 61%
11:00 +27°C° 0 mm 2 mps 752 mmHg 54%
12:00 +27°C° 0.1 mm 2 mps 751 mmHg 54%
13:00 +27°C° 0.1 mm 3 mps 751 mmHg 55%
14:00 +28°C° 0.1 mm 3 mps 751 mmHg 55%
15:00 +26°C° 0.6 mm 3 mps 750 mmHg 63%
16:00 +25°C° 0.6 mm 3 mps 750 mmHg 71%
17:00 +24°C° 0.6 mm 3 mps 750 mmHg 80%
18:00 +23°C° 0.1 mm 2 mps 750 mmHg 83%
19:00 +20°C° 0.1 mm 2 mps 751 mmHg 87%
20:00 +20°C° 0.1 mm 1 mps 751 mmHg 90%
21:00 +18°C° 0 mm 2 mps 751 mmHg 90%
22:00 +17°C° 0 mm 2 mps 751 mmHg 89%
23:00 +14°C° 0 mm 3 mps 752 mmHg 89%

Day after tomorrow, 11 August, Tuesday

Time Temperature Precipitation Wind Pressure Humidity
00:00 +14°C° 0 mm 3 mps 752 mmHg 91%
01:00 +14°C° 0 mm 2 mps 752 mmHg 93%
02:00 +13°C° 0 mm 2 mps 752 mmHg 95%
03:00 +13°C° 0 mm 2 mps 752 mmHg 96%
04:00 +12°C° 0 mm 2 mps 752 mmHg 96%
05:00 +12°C° 0 mm 2 mps 753 mmHg 97%
06:00 +13°C° 0 mm 2 mps 753 mmHg 91%
07:00 +13°C° 0 mm 3 mps 753 mmHg 85%
08:00 +14°C° 0 mm 3 mps 753 mmHg 79%
09:00 +14°C° 0 mm 4 mps 753 mmHg 76%
10:00 +14°C° 0 mm 4 mps 753 mmHg 73%
11:00 +15°C° 0 mm 4 mps 753 mmHg 69%
12:00 +15°C° 0 mm 4 mps 753 mmHg 67%
13:00 +17°C° 0 mm 4 mps 753 mmHg 65%
14:00 +17°C° 0 mm 4 mps 753 mmHg 63%
15:00 +17°C° 0 mm 4 mps 753 mmHg 63%
16:00 +17°C° 0 mm 4 mps 753 mmHg 62%
17:00 +17°C° 0 mm 4 mps 754 mmHg 61%
18:00 +16°C° 0 mm 3 mps 754 mmHg 67%
19:00 +13°C° 0 mm 3 mps 754 mmHg 73%
20:00 +13°C° 0 mm 2 mps 754 mmHg 79%
21:00 +12°C° 0 mm 2 mps 754 mmHg 84%
22:00 +12°C° 0 mm 2 mps 754 mmHg 88%
23:00 +10°C° 0 mm 2 mps 754 mmHg 93%

12 August, Wednesday

Time Temperature Precipitation Wind Pressure Humidity
00:00 +9°C° 0 mm 2 mps 754 mmHg 94%
01:00 +9°C° 0 mm 2 mps 754 mmHg 95%
02:00 +8°C° 0 mm 2 mps 754 mmHg 96%
03:00 +8°C° 0 mm 2 mps 755 mmHg 96%
04:00 +8°C° 0 mm 2 mps 755 mmHg 97%
05:00 +8°C° 0 mm 2 mps 755 mmHg 97%
06:00 +10°C° 0 mm 2 mps 755 mmHg 90%
07:00 +11°C° 0 mm 3 mps 755 mmHg 83%
08:00 +13°C° 0 mm 3 mps 755 mmHg 76%
09:00 +14°C° 0 mm 3 mps 755 mmHg 70%
10:00 +17°C° 0 mm 3 mps 755 mmHg 63%
11:00 +18°C° 0 mm 3 mps 755 mmHg 57%
12:00 +18°C° 0 mm 3 mps 755 mmHg 56%
13:00 +18°C° 0 mm 3 mps 755 mmHg 55%
14:00 +19°C° 0 mm 3 mps 754 mmHg 54%
15:00 +18°C° 0 mm 3 mps 754 mmHg 56%
16:00 +18°C° 0 mm 2 mps 754 mmHg 59%
17:00 +17°C° 0 mm 2 mps 754 mmHg 61%
18:00 +16°C° 0 mm 2 mps 754 mmHg 65%
19:00 +15°C° 0 mm 1 mps 754 mmHg 68%
20:00 +14°C° 0 mm 1 mps 754 mmHg 72%
21:00 +13°C° 0 mm 1 mps 754 mmHg 74%
22:00 +13°C° 0 mm 1 mps 754 mmHg 76%
23:00 +11°C° 0 mm 0 mps 754 mmHg 78%

13 August, Thursday

Time Temperature Precipitation Wind Pressure Humidity
00:00 +10°C° 0 mm 0 mps 753 mmHg 80%
01:00 +11°C° 0 mm 1 mps 753 mmHg 82%
02:00 +10°C° 0 mm 1 mps 753 mmHg 84%
03:00 +10°C° 0 mm 1 mps 753 mmHg 85%
04:00 +10°C° 0 mm 1 mps 753 mmHg 86%
05:00 +9°C° 0 mm 1 mps 752 mmHg 87%
06:00 +11°C° 0 mm 1 mps 752 mmHg 81%
07:00 +13°C° 0 mm 2 mps 752 mmHg 75%
08:00 +15°C° 0 mm 2 mps 751 mmHg 70%
09:00 +15°C° 0.1 mm 2 mps 751 mmHg 70%
10:00 +16°C° 0.1 mm 2 mps 751 mmHg 70%
11:00 +17°C° 0.1 mm 2 mps 750 mmHg 70%
12:00 +17°C° 0.2 mm 3 mps 750 mmHg 69%
13:00 +18°C° 0.2 mm 3 mps 749 mmHg 68%
14:00 +19°C° 0.2 mm 3 mps 749 mmHg 66%
15:00 +19°C° 0.1 mm 3 mps 748 mmHg 68%
16:00 +19°C° 0.1 mm 3 mps 748 mmHg 70%
17:00 +19°C° 0.1 mm 3 mps 748 mmHg 72%
18:00 +17°C° 0.2 mm 3 mps 747 mmHg 79%
19:00 +16°C° 0.2 mm 3 mps 747 mmHg 85%
20:00 +14°C° 0.2 mm 2 mps 747 mmHg 92%
21:00 +14°C° 0.1 mm 2 mps 747 mmHg 94%
22:00 +14°C° 0.1 mm 2 mps 747 mmHg 96%
23:00 +13°C° 0.1 mm 2 mps 747 mmHg 98%

14 August, Friday

Time Temperature Precipitation Wind Pressure Humidity
00:00 +13°C° 0 mm 2 mps 747 mmHg 98%
01:00 +12°C° 0 mm 3 mps 748 mmHg 97%
02:00 +12°C° 0 mm 3 mps 748 mmHg 97%
03:00 +11°C° 0 mm 3 mps 748 mmHg 97%
04:00 +11°C° 0 mm 3 mps 748 mmHg 97%
05:00 +12°C° 0 mm 2 mps 749 mmHg 96%
06:00 +11°C° 0 mm 3 mps 749 mmHg 94%
07:00 +12°C° 0 mm 3 mps 749 mmHg 92%
08:00 +12°C° 0 mm 3 mps 749 mmHg 90%
09:00 +13°C° 0 mm 3 mps 749 mmHg 81%
10:00 +16°C° 0 mm 3 mps 750 mmHg 71%
11:00 +17°C° 0 mm 3 mps 750 mmHg 62%
12:00 +17°C° 0 mm 3 mps 750 mmHg 59%
13:00 +18°C° 0 mm 3 mps 750 mmHg 56%
14:00 +19°C° 0 mm 3 mps 749 mmHg 53%
15:00 +19°C° 0 mm 3 mps 749 mmHg 53%
16:00 +19°C° 0 mm 3 mps 749 mmHg 54%
17:00 +19°C° 0 mm 3 mps 749 mmHg 54%
18:00 +17°C° 0 mm 2 mps 749 mmHg 62%
19:00 +15°C° 0 mm 1 mps 750 mmHg 70%
20:00 +13°C° 0 mm 1 mps 750 mmHg 78%
21:00 +12°C° 0 mm 1 mps 750 mmHg 80%
22:00 +10°C° 0 mm 0 mps 750 mmHg 82%
23:00 +10°C° 0 mm 0 mps 750 mmHg 84%
Show more